Vertical_Velocity
-2 -2 -3 -2 -2 -3 -4 -3 -3 -6 -3 -1 -1 -0 -1 -1 -1 -0 2 1 1 1 0 -0 2 3 -1 4 2 2 -0 3 4 -1 4 -6 16 -30 15 16 4 1 -5
-1 -3 -3 -3 -2 -1 -3 -4 -3 -4 -6 -4 -3 -5 -2 3 -0 -1 -1 -1 -1 2 -0 -2 -0 1 -3 -0 3 4 2 -3 7 -4 5 -1 -0 1 -7 -3 -1 3 1
-0 -1 -3 -3 -2 -2 -1 -1 -2 -2 -3 -3 -2 -1 -3 -4 -1 -1 3 3 -1 0 1 0 -0 1 -1 -3 0 2 -1 -0 4 5 -3 4 -9 8 13 7 2 -1 5
1 -1 -2 -4 -4 -4 -2 -2 -3 -4 -3 -5 -3 -3 -3 -4 -1 -3 -1 -1 -3 -2 -1 -1 -2 -1 3 3 8 9 4 -1 -2 7 8 -0 2 -2 -9 -0 2 8 -4
-2 -2 -3 -2 -2 -3 -2 -2 -2 -3 -3 -2 -4 -6 -2 -4 -4 -2 -0 -0 1 -0 2 -0 1 1 0 3 -0 2 -1 1 -2 3 10 4 4 6 -5 -11 -1 -6 4
-1 -2 -1 -2 -3 -2 -1 -3 -1 -3 -3 -1 1 -5 1 -3 -2 -2 -2 -2 0 1 2 1 -1 2 2 2 -4 2 0 3 -2 -0 8 -3 1 2 3 2 -1 -5 1
-0 -0 -2 -1 -1 -0 -1 -0 -3 1 3 2 -5 -5 -5 -3 -3 -2 -1 -1 1 2 3 -2 -0 -2 -2 -1 -2 1 0 4 -3 2 1 3 -1 2 6 1 2 -4 4
-2 -1 -0 -1 0 -0 0 -1 -2 -2 -0 -3 -2 1 -3 -2 -1 0 -1 -1 -3 -0 1 -1 2 3 -1 -1 -0 -0 2 0 -2 -1 2 7 -2 3 3 3 11 2 -0
1 1 -0 -1 0 0 -5 -2 -2 -1 -2 -2 3 -3 -0 -1 -2 5 2 -6 -4 -3 -1 -2 -3 -2 -2 -1 -1 -0 1 -3 -0 -0 2 1 2 3 4 -1 8 9 2
1 1 -2 -1 -0 -1 -0 -4 -4 -2 1 2 -1 -2 2 1 3 -5 -5 -8 -6 -6 -5 -4 -2 -2 -1 1 2 -0 2 -1 4 1 1 -1 1 2 1 2 5 7 3
0 -1 0 1 -0 -1 -2 -2 1 -1 0 -3 -3 0 -1 -2 -1 -2 -2 -0 -1 -4 -3 -2 -2 -2 -2 -1 -2 -0 0 -1 -2 0 1 3 2 -3 4 3 2 3 4
-0 1 0 -1 -2 -3 -0 -0 -0 1 -1 -2 -3 -0 -4 -0 -3 -2 -1 1 1 0 -1 0 0 -3 -4 -2 -3 -6 -3 -1 1 -2 4 2 12 2 -1 9 -2 1 5
2 -0 -1 -2 -0 -2 1 -1 -1 -1 0 -2 0 -1 -2 -2 -2 1 0 -2 -1 1 -2 -2 -3 2 1 1 -0 -4 -3 -3 -3 -0 -1 17 -10 -1 -0 -0 -3 1 5
2 1 3 2 1 1 1 1 -0 2 2 0 1 1 1 -1 -2 -2 -1 -3 -3 -3 -1 -0 -1 0 -0 -0 1 -1 -2 -5 -0 -1 2 4 -1 -2 9 13 6 3 1
-7 -12 -8 -2 -3 -0 1 1 1 -1 3 2 1 1 0 -2 -2 -3 -4 -4 -4 -3 -2 -1 0 1 0 -1 -2 -1 -0 -1 -3 7 14 8 15 5 4 -2 1 2 1
-5 4 -4 -3 -0 -3 -6 -6 0 2 1 1 -0 -2 -2 -3 -1 -1 -1 -0 -2 -3 -2 -4 -0 3 2 2 3 -0 -1 -3 -2 -1 -0 -3 -2 -2 -0 2 1 4 -0
-3 0 0 2 3 0 3 2 -4 -6 -2 2 2 1 0 -1 0 -1 -1 1 -1 -3 -2 -2 -3 -1 2 1 -2 2 3 -0 -2 -2 0 2 1 0 -1 -2 -1 -5 -3
1 1 1 1 1 0 0 1 2 1 1 -3 -1 1 1 1 -1 -0 -0 -1 -1 -1 0 -0 -1 -1 -3 1 1 -1 -2 1 1 -1 -2 -2 0 2 1 1 -2 -2 -2
-0 -1 -2 -2 -2 -3 -0 1 1 1 -1 3 2 1 -1 -0 1 -0 0 0 1 -2 -1 -2 -1 -0 -2 -1 0 1 -0 -1 -2 1 5 2 2 4 1 1 -3 -2 -3
0 0 -0 -1 -3 -7 -4 -2 0 -0 -0 -1 -3 -3 0 2 -0 -1 -1 -2 -1 0 1 -0 -0 -2 -1 -2 -3 0 -2 -4 -1 2 2 1 -0 1 0 -0 0 -1 -1
2 2 -0 3 5 2 -2 -2 -2 1 5 0 -0 -1 -1 -1 -2 -1 -2 -2 -3 -3 -2 -1 -1 -1 -2 0 -1 -3 -1 -1 0 -2 -2 1 7 6 3 2 -0 -1 0
0 1 -1 3 3 -2 2 7 5 -5 -2 -2 -0 2 0 1 1 0 0 -2 -4 -2 -0 1 -2 -3 -1 -3 -1 -1 -2 -0 1 2 -1 0 2 0 3 2 2 3 2
-4 0 -2 -1 3 1 1 5 3 -4 3 6 4 -0 -2 3 2 0 2 1 1 -2 -4 -3 0 -0 -4 -4 -1 -1 -2 -4 -1 1 2 2 1 -1 1 5 3 3 7
-0 -1 -5 2 -0 -1 -3 4 5 3 3 -3 -4 1 -2 2 -2 1 1 1 1 0 0 -3 -4 -2 1 0 -1 -3 -2 -0 -2 -3 -3 -2 -1 2 2 1 -1 3 4
4 -1 -4 -4 3 -2 -0 -1 2 2 3 2 1 1 4 0 -4 0 -0 3 2 0 -0 -0 -1 -2 -5 -3 -1 0 -0 -2 -3 -2 -0 -1 -1 -1 -0 0 3 2 1
3 0 3 -1 2 -1 -1 -3 -2 -1 -1 4 5 -0 0 3 4 -3 0 -0 -1 3 -0 -0 0 -0 -1 -0 -1 -2 -3 -1 2 -2 -3 -1 -1 -1 -0 -0 -0 -0 0
Height
3114 3113 3111 3109 3108 3106 3104 3101 3099 3096 3094 3091 3089 3087 3085 3083 3081 3079 3078 3077 3076 3075 3073 3073 3074 3075 3076 3078 3080 3082 3085 3089 3094 3094 3094 3098 3098 3100 3104 3108 3109 3111 3115
3107 3106 3105 3104 3102 3100 3097 3095 3092 3089 3086 3083 3080 3077 3075 3074 3071 3069 3066 3063 3062 3061 3060 3060 3060 3061 3061 3062 3064 3067 3069 3073 3079 3081 3083 3082 3087 3089 3095 3094 3097 3101 3105
3101 3100 3100 3098 3096 3094 3092 3089 3087 3084 3082 3078 3075 3071 3067 3063 3060 3058 3055 3051 3048 3047 3046 3046 3046 3046 3047 3050 3053 3054 3055 3057 3064 3068 3069 3069 3069 3075 3080 3082 3088 3093 3095
3097 3096 3095 3094 3092 3090 3087 3084 3082 3078 3076 3072 3068 3064 3061 3057 3053 3047 3044 3041 3038 3035 3033 3033 3033 3032 3034 3035 3038 3040 3040 3041 3044 3050 3054 3056 3059 3061 3062 3068 3076 3081 3083
3092 3091 3090 3090 3087 3085 3083 3080 3078 3074 3070 3067 3062 3058 3054 3048 3042 3037 3032 3029 3025 3022 3020 3019 3019 3019 3019 3019 3020 3022 3026 3029 3031 3031 3035 3041 3045 3048 3049 3050 3059 3064 3072
3088 3087 3087 3085 3083 3081 3079 3076 3073 3070 3066 3061 3056 3051 3046 3039 3032 3025 3020 3016 3013 3010 3009 3007 3006 3006 3007 3009 3010 3011 3012 3014 3014 3018 3020 3023 3028 3032 3036 3039 3044 3051 3059
3085 3084 3083 3080 3079 3077 3074 3072 3069 3064 3060 3056 3052 3046 3039 3030 3022 3016 3010 3004 3000 2998 2997 2995 2998 2999 3000 3001 3001 3001 3002 3003 3002 3005 3006 3009 3013 3019 3023 3026 3030 3034 3042
3081 3080 3077 3076 3074 3072 3069 3066 3062 3059 3055 3051 3046 3040 3032 3024 3017 3011 3002 2995 2989 2986 2986 2987 2989 2991 2992 2993 2993 2992 2991 2991 2992 2993 2993 2994 2998 3005 3010 3014 3020 3022 3026
3077 3075 3072 3071 3069 3066 3063 3060 3056 3053 3049 3045 3041 3035 3027 3019 3013 3005 2995 2990 2986 2982 2982 2981 2983 2984 2986 2985 2984 2983 2982 2981 2981 2981 2981 2982 2985 2990 2996 3003 3007 3010 3013
3072 3070 3068 3066 3063 3060 3057 3054 3051 3048 3044 3039 3034 3030 3024 3016 3007 3001 2995 2990 2988 2985 2982 2981 2980 2980 2979 2978 2976 2975 2973 2970 2970 2969 2969 2971 2974 2978 2984 2989 2994 2999 3002
3068 3065 3063 3060 3058 3055 3052 3050 3047 3043 3038 3034 3030 3026 3020 3013 3006 2999 2993 2988 2985 2983 2980 2978 2976 2975 2973 2970 2967 2965 2963 2960 2958 2958 2959 2961 2965 2968 2973 2978 2984 2988 2993
3064 3061 3059 3056 3053 3050 3047 3044 3041 3035 3032 3030 3027 3021 3016 3010 3005 2998 2993 2987 2983 2978 2976 2973 2971 2968 2965 2963 2960 2957 2954 2951 2948 2947 2949 2952 2957 2959 2964 2967 2972 2978 2983
3060 3057 3054 3051 3048 3045 3042 3039 3035 3031 3029 3026 3022 3017 3012 3007 3002 2996 2989 2985 2979 2975 2972 2968 2966 2963 2960 2957 2954 2951 2947 2945 2942 2941 2942 2946 2950 2954 2957 2961 2964 2969 2974
3053 3051 3048 3045 3042 3039 3036 3034 3030 3027 3024 3021 3017 3013 3008 3004 2999 2994 2988 2984 2978 2973 2967 2963 2960 2957 2954 2951 2949 2946 2942 2941 2940 2938 2939 2943 2947 2949 2951 2954 2957 2962 2967
3048 3045 3043 3040 3036 3035 3032 3028 3025 3023 3020 3017 3014 3010 3005 3001 2996 2991 2986 2981 2976 2970 2965 2959 2954 2950 2948 2947 2944 2941 2938 2937 2937 2936 2937 2940 2942 2944 2946 2948 2952 2955 2958
3044 3042 3038 3035 3031 3029 3026 3023 3020 3017 3015 3012 3010 3006 3002 2998 2993 2989 2983 2977 2973 2968 2962 2957 2950 2944 2941 2940 2937 2935 2935 2935 2935 2935 2936 2937 2939 2941 2942 2944 2946 2949 2951
3038 3036 3034 3031 3027 3025 3022 3020 3017 3014 3009 3006 3003 3000 2997 2994 2990 2985 2980 2974 2969 2964 2959 2954 2948 2941 2935 2932 2932 2931 2931 2930 2931 2932 2933 2934 2935 2937 2939 2940 2942 2944 2945
3034 3031 3028 3025 3022 3020 3017 3015 3013 3010 3007 3003 2999 2995 2991 2987 2984 2980 2976 2972 2966 2961 2956 2950 2946 2941 2935 2927 2924 2924 2925 2926 2927 2928 2929 2931 2932 2934 2935 2935 2936 2938 2940
3029 3027 3024 3021 3018 3014 3011 3010 3007 3004 3002 2998 2995 2992 2988 2984 2979 2976 2971 2967 2964 2959 2954 2948 2942 2937 2932 2928 2921 2917 2917 2919 2921 2922 2925 2926 2928 2930 2931 2931 2931 2933 2934
3023 3020 3017 3015 3013 3010 3007 3003 3000 2998 2996 2993 2991 2988 2984 2980 2976 2972 2968 2963 2959 2956 2952 2946 2940 2934 2929 2925 2921 2914 2909 2912 2915 2916 2918 2920 2922 2925 2926 2925 2925 2925 2926
3015 3013 3010 3007 3004 3001 3000 2998 2994 2991 2989 2986 2984 2981 2979 2976 2973 2968 2965 2960 2956 2952 2949 2945 2940 2934 2928 2922 2918 2915 2910 2909 2909 2910 2912 2913 2914 2917 2918 2918 2918 2918 2919
3009 3005 3000 3000 2998 2994 2992 2990 2988 2985 2983 2980 2977 2975 2973 2970 2967 2965 2961 2958 2954 2948 2944 2940 2936 2932 2928 2923 2918 2914 2911 2908 2906 2906 2907 2908 2908 2910 2910 2911 2911 2911 2912
3000 2997 2995 2992 2991 2988 2985 2983 2981 2978 2976 2973 2970 2968 2965 2962 2961 2957 2954 2951 2948 2945 2941 2937 2933 2930 2926 2922 2918 2914 2911 2907 2905 2903 2902 2901 2903 2903 2903 2903 2903 2902 2902
2992 2988 2986 2984 2984 2978 2975 2975 2972 2968 2967 2965 2963 2960 2958 2955 2952 2950 2948 2945 2942 2939 2936 2933 2930 2926 2922 2919 2916 2913 2909 2906 2904 2902 2900 2899 2898 2897 2897 2897 2897 2895 2895
2983 2980 2978 2975 2974 2971 2969 2967 2964 2962 2960 2957 2955 2953 2950 2948 2945 2942 2940 2938 2936 2932 2929 2927 2925 2922 2919 2915 2912 2909 2905 2903 2902 2900 2898 2896 2895 2893 2892 2891 2891 2890 2890
2974 2972 2970 2967 2966 2963 2962 2959 2957 2955 2953 2951 2948 2946 2943 2940 2938 2935 2933 2931 2928 2925 2923 2920 2918 2915 2913 2911 2908 2905 2903 2900 2897 2896 2895 2894 2892 2890 2889 2888 2888 2887 2887